User: anonymous   Login
Location: Wien
(48.2082°N, 16.3738°E)
Time: 00:52:24
(UTC+02:00)
Language:

CUBEBUG 2 - Orbit

View from above orbital plane
View from above orbital plane
View from above satellite
View from above satellite

Ground track
Ground track

The orbit data is extracted from the following two-line orbital elements,

1 39440U 13066AA  19289.95687209  .00000191  00000-0  33303-4 0  9998
2 39440  97.6102 281.3394 0081462  54.9052 305.9762 14.75898517317719
Epoch (UTC): 16 October 2019 22:57:53
Eccentricity: 0.0081462
inclination: 97.6102°
perigee height: 585 km
apogee height: 699 km
right ascension of ascending node: 281.3394°
argument of perigee: 54.9052°
revolutions per day: 14.75898517
mean anomaly at epoch: 305.9762°
orbit number at epoch: 31771

The dashed part of the orbit path shows where the satellite is in the earth's shadow,  

DLR